Hourly Data Report for November 17, 2005

TORONTO CITY
ONTARIO

43°40'00.000" N
79°24'00.000" W
112.50 m
6158355
71508
XTO

Download Data

Hourly Data (November 2005)
Hourly Data Report for November 17, 2005
TIME
LST
Temp Definition
°C
Dew Point Definition
°C
Rel Hum Definition
%
Precip. Amount Definition
mm

Wind Dir Definition
10's deg

Wind Spd Definition
km/h
Visibility Definition
km
Stn Press Definition
kPa
Hmdx Definition


Wind Chill Definition


Weather Definition


00:00 1.6 -4.3 65   LegendMM LegendMM   100.19     LegendNANA
01:00 1.5 -4.3 65   LegendMM LegendMM   100.25     LegendNANA
02:00 1.1 -4.9 64   LegendMM LegendMM   100.27     LegendNANA
03:00 0.4 -5.4 65   LegendMM LegendMM   100.31     LegendNANA
04:00 0.6 -5.6 63   LegendMM LegendMM   100.31     LegendNANA
05:00 0.4 -5.5 65   LegendMM LegendMM   100.34     LegendNANA
06:00 0.2 -5.6 65   LegendMM LegendMM   100.39     LegendNANA
07:00 0.1 -5.7 65   LegendMM LegendMM   100.44     LegendNANA
08:00 -0.3 -5.7 67   LegendMM LegendMM   100.50     LegendNANA
09:00 0.1 -5.8 64   LegendMM LegendMM   100.54     LegendNANA
10:00 0.2 -5.7 64   LegendMM LegendMM   100.56     LegendNANA
11:00 0.7 -4.9 66   LegendMM LegendMM   100.60     LegendNANA
12:00 1.2 -4.4 66   LegendMM LegendMM   100.56     LegendNANA
13:00 2.2 -2.9 69   LegendMM LegendMM   100.55     LegendNANA
14:00 3.1 -2.9 65   LegendMM LegendMM   100.58     LegendNANA
15:00 2.7 -4.7 58   LegendMM LegendMM   100.70     LegendNANA
16:00 2.4 -5.0 58   LegendMM LegendMM   100.78     LegendNANA
17:00 0.8 -5.4 63   LegendMM LegendMM   100.91     LegendNANA
18:00 0.2 -6.5 61   LegendMM LegendMM   101.01     LegendNANA
19:00 -0.4 -8.1 56   LegendMM LegendMM   101.09     LegendNANA
20:00 -0.8 -8.4 56   LegendMM LegendMM   101.12     LegendNANA
21:00 -1.2 -8.3 58   LegendMM LegendMM   101.16     LegendNANA
22:00 -1.8 -7.6 65   LegendMM LegendMM   101.20     LegendNANA
23:00 -2.2 -6.9 70   LegendMM LegendMM   101.22     LegendNANA

Notes on Data Quality.

Legend

  • E = Estimated
  • M = Missing
  • NA = Not Available*
  • [empty] = Indicates an unobserved value
Date modified: